Time,TemperatureF,DewpointF,PressureIn,WindDirection,WindDirectionDegrees,WindSpeedMPH,WindSpeedGustMPH,Humidity,HourlyPrecipIn,Conditions,Clouds,dailyrainin,SoftwareType,DateUTC
2013-09-05 00:01:00,64.4,53.6,29.57,South,180,0.9,2.0,68,0.00,,,0.00,WUHU216HW,2013-09-05 04:01:00,
2013-09-05 00:06:00,64.4,54.1,29.57,South,180,1.3,2.9,69,0.00,,,0.00,WUHU216HW,2013-09-05 04:06:00,
2013-09-05 00:11:00,64.4,54.1,29.57,South,180,1.1,3.8,69,0.00,,,0.00,WUHU216HW,2013-09-05 04:11:00,
2013-09-05 00:16:00,64.6,54.3,29.57,SSE,158,0.0,3.8,69,0.00,,,0.00,WUHU216HW,2013-09-05 04:16:00,
2013-09-05 00:21:00,64.4,54.1,29.57,SW,225,1.3,2.9,69,0.00,,,0.00,WUHU216HW,2013-09-05 04:21:00,
2013-09-05 00:26:00,64.3,53.9,29.57,South,180,2.2,4.0,69,0.00,,,0.00,WUHU216HW,2013-09-05 04:26:00,
2013-09-05 00:31:00,64.3,54.4,29.57,SSW,203,3.4,4.0,70,0.00,,,0.00,WUHU216HW,2013-09-05 04:31:00,
2013-09-05 00:36:00,64.4,54.1,29.57,SSW,203,1.1,3.4,69,0.00,,,0.00,WUHU216HW,2013-09-05 04:36:00,
2013-09-05 00:41:00,64.4,54.1,29.57,SSW,203,1.1,3.1,69,0.00,,,0.00,WUHU216HW,2013-09-05 04:41:00,
2013-09-05 00:46:00,64.6,54.3,29.57,WSW,248,1.6,6.3,69,0.00,,,0.00,WUHU216HW,2013-09-05 04:46:00,
2013-09-05 00:51:00,65.2,54.4,29.57,SW,225,0.2,6.3,68,0.00,,,0.00,WUHU216HW,2013-09-05 04:51:00,
2013-09-05 00:56:00,65.2,54.4,29.57,SE,135,0.4,2.7,68,0.00,,,0.00,WUHU216HW,2013-09-05 04:56:00,
2013-09-05 01:01:00,65.3,54.6,29.57,NW,315,0.9,3.8,68,0.00,,,0.00,WUHU216HW,2013-09-05 05:01:00,
2013-09-05 01:06:00,65.3,54.6,29.57,West,270,0.0,3.8,68,0.00,,,0.00,WUHU216HW,2013-09-05 05:06:00,
2013-09-05 01:11:00,65.3,54.6,29.57,NW,315,0.0,1.8,68,0.00,,,0.00,WUHU216HW,2013-09-05 05:11:00,
2013-09-05 01:16:00,65.7,54.5,29.57,WSW,248,7.8,7.8,67,0.00,,,0.00,WUHU216HW,2013-09-05 05:16:00,
2013-09-05 01:21:00,66.2,54.1,29.57,NNW,338,4.7,7.8,65,0.00,,,0.00,WUHU216HW,2013-09-05 05:21:00,
2013-09-05 01:26:00,67.1,54.6,29.58,North,0,2.9,7.8,64,0.00,,,0.00,WUHU216HW,2013-09-05 05:26:00,
2013-09-05 01:31:00,67.5,54.9,29.58,NW,315,3.4,5.6,64,0.00,,,0.00,WUHU216HW,2013-09-05 05:31:00,
2013-09-05 01:36:00,68.0,54.9,29.57,NW,315,2.9,9.8,63,0.00,,,0.00,WUHU216HW,2013-09-05 05:36:00,
2013-09-05 01:41:00,68.4,55.3,29.57,North,0,4.0,9.8,63,0.00,,,0.00,WUHU216HW,2013-09-05 05:41:00,
2013-09-05 01:46:00,68.4,55.3,29.57,North,0,4.9,8.9,63,0.00,,,0.00,WUHU216HW,2013-09-05 05:46:00,
2013-09-05 01:51:00,68.2,55.1,29.57,WNW,293,4.3,6.5,63,0.00,,,0.00,WUHU216HW,2013-09-05 05:51:00,
2013-09-05 01:56:00,67.9,55.2,29.56,NNW,338,3.6,6.0,64,0.00,,,0.00,WUHU216HW,2013-09-05 05:56:00,
2013-09-05 02:01:00,67.5,55.7,29.57,NW,315,2.2,6.9,66,0.00,,,0.00,WUHU216HW,2013-09-05 06:01:00,
2013-09-05 02:06:00,67.3,55.5,29.56,NNW,338,1.1,6.9,66,0.00,,,0.00,WUHU216HW,2013-09-05 06:06:00,
2013-09-05 02:11:00,67.0,55.6,29.57,WNW,293,1.8,5.8,67,0.00,,,0.00,WUHU216HW,2013-09-05 06:11:00,
2013-09-05 02:16:00,67.0,56.1,29.56,NW,315,2.7,5.8,68,0.00,,,0.00,WUHU216HW,2013-09-05 06:16:00,
2013-09-05 02:21:00,66.8,56.3,29.56,WSW,248,6.3,6.3,69,0.00,,,0.00,WUHU216HW,2013-09-05 06:21:00,
2013-09-05 02:26:00,66.6,56.1,29.56,West,270,2.5,6.3,69,0.00,,,0.00,WUHU216HW,2013-09-05 06:26:00,
2013-09-05 02:31:00,66.8,56.3,29.56,WSW,248,4.0,6.3,69,0.00,,,0.00,WUHU216HW,2013-09-05 06:31:00,
2013-09-05 02:36:00,67.0,56.4,29.56,SW,225,3.8,5.4,69,0.00,,,0.00,WUHU216HW,2013-09-05 06:36:00,
2013-09-05 02:41:00,67.0,56.4,29.56,South,180,1.1,6.3,69,0.00,,,0.00,WUHU216HW,2013-09-05 06:41:00,
2013-09-05 02:46:00,67.0,56.1,29.55,South,180,3.1,6.3,68,0.00,,,0.00,WUHU216HW,2013-09-05 06:46:00,
2013-09-05 02:51:00,66.6,55.7,29.55,SE,135,1.3,4.7,68,0.00,,,0.00,WUHU216HW,2013-09-05 06:51:00,
2013-09-05 02:56:00,66.4,55.9,29.55,SE,135,1.3,4.7,69,0.00,,,0.00,WUHU216HW,2013-09-05 06:56:00,
2013-09-05 03:01:00,66.1,55.6,29.55,SE,135,0.7,2.7,69,0.00,,,0.00,WUHU216HW,2013-09-05 07:01:00,
2013-09-05 03:06:00,65.9,55.8,29.55,SSE,158,1.1,2.0,70,0.00,,,0.00,WUHU216HW,2013-09-05 07:06:00,
2013-09-05 03:11:00,65.9,55.8,29.55,South,180,2.5,2.5,70,0.00,,,0.00,WUHU216HW,2013-09-05 07:11:00,
2013-09-05 03:16:00,65.9,55.8,29.55,SE,135,1.3,2.5,70,0.00,,,0.00,WUHU216HW,2013-09-05 07:16:00,
2013-09-05 03:21:00,65.7,55.7,29.55,SE,135,0.9,3.4,70,0.00,,,0.00,WUHU216HW,2013-09-05 07:21:00,
2013-09-05 03:26:00,65.3,55.7,29.55,SE,135,0.0,3.4,71,0.00,,,0.00,WUHU216HW,2013-09-05 07:26:00,
2013-09-05 03:31:00,65.2,55.5,29.55,SSE,158,0.0,1.8,71,0.00,,,0.00,WUHU216HW,2013-09-05 07:31:00,
2013-09-05 03:36:00,65.2,55.9,29.55,WSW,248,0.2,1.8,72,0.00,,,0.00,WUHU216HW,2013-09-05 07:36:00,
2013-09-05 03:41:00,65.2,55.9,29.55,North,0,0.4,2.7,72,0.00,,,0.00,WUHU216HW,2013-09-05 07:41:00,
2013-09-05 03:46:00,65.2,55.9,29.55,East,90,1.6,2.7,72,0.00,,,0.00,WUHU216HW,2013-09-05 07:46:00,
2013-09-05 03:51:00,65.2,56.3,29.55,ENE,68,1.8,1.8,73,0.00,,,0.00,WUHU216HW,2013-09-05 07:51:00,
2013-09-05 03:56:00,65.2,56.3,29.56,NNW,338,1.8,3.1,73,0.00,,,0.00,WUHU216HW,2013-09-05 07:56:00,
2013-09-05 04:01:00,65.5,56.6,29.55,NNW,338,1.6,4.5,73,0.00,,,0.00,WUHU216HW,2013-09-05 08:01:00,
2013-09-05 04:06:00,65.9,56.6,29.55,NNW,338,2.5,4.9,72,0.00,,,0.00,WUHU216HW,2013-09-05 08:06:00,
2013-09-05 04:11:00,66.2,56.9,29.55,WNW,293,2.5,4.9,72,0.00,,,0.00,WUHU216HW,2013-09-05 08:11:00,
2013-09-05 04:16:00,66.2,56.5,29.55,WSW,248,1.8,6.5,71,0.00,,,0.00,WUHU216HW,2013-09-05 08:16:00,
2013-09-05 04:21:00,66.2,56.5,29.56,WSW,248,2.0,6.5,71,0.00,,,0.00,WUHU216HW,2013-09-05 08:21:00,
2013-09-05 04:26:00,66.2,56.5,29.56,West,270,2.0,4.0,71,0.00,,,0.00,WUHU216HW,2013-09-05 08:26:00,
2013-09-05 04:31:00,66.2,56.5,29.57,West,270,3.4,4.0,71,0.00,,,0.00,WUHU216HW,2013-09-05 08:31:00,
2013-09-05 04:36:00,66.2,56.9,29.57,NW,315,1.1,3.4,72,0.00,,,0.00,WUHU216HW,2013-09-05 08:36:00,
2013-09-05 04:41:00,66.2,56.9,29.57,WSW,248,4.0,4.9,72,0.00,,,0.00,WUHU216HW,2013-09-05 08:41:00,
2013-09-05 04:46:00,66.4,57.1,29.56,WNW,293,0.4,5.4,72,0.00,,,0.00,WUHU216HW,2013-09-05 08:46:00,
2013-09-05 04:51:00,66.6,57.2,29.57,West,270,2.9,5.4,72,0.00,,,0.00,WUHU216HW,2013-09-05 08:51:00,
2013-09-05 04:56:00,66.6,57.2,29.57,West,270,3.1,4.9,72,0.00,,,0.00,WUHU216HW,2013-09-05 08:56:00,
2013-09-05 05:01:00,66.8,57.1,29.57,NNW,338,2.5,5.6,71,0.00,,,0.00,WUHU216HW,2013-09-05 09:01:00,
2013-09-05 05:06:00,66.8,57.4,29.57,WSW,248,3.6,5.6,72,0.00,,,0.00,WUHU216HW,2013-09-05 09:06:00,
2013-09-05 05:11:00,66.6,57.2,29.57,NW,315,2.7,4.0,72,0.00,,,0.00,WUHU216HW,2013-09-05 09:11:00,
2013-09-05 05:16:00,66.6,57.2,29.58,WSW,248,4.0,6.3,72,0.00,,,0.00,WUHU216HW,2013-09-05 09:16:00,
2013-09-05 05:21:00,66.6,57.2,29.58,WNW,293,6.7,7.6,72,0.00,,,0.00,WUHU216HW,2013-09-05 09:21:00,
2013-09-05 05:26:00,66.6,57.2,29.58,West,270,3.4,7.6,72,0.00,,,0.00,WUHU216HW,2013-09-05 09:26:00,
2013-09-05 05:31:00,66.4,57.1,29.58,West,270,3.8,6.7,72,0.00,,,0.00,WUHU216HW,2013-09-05 09:31:00,
2013-09-05 05:36:00,66.4,57.5,29.57,West,270,6.7,7.6,73,0.00,,,0.00,WUHU216HW,2013-09-05 09:36:00,
2013-09-05 05:41:00,66.2,57.3,29.58,North,0,1.1,7.6,73,0.00,,,0.00,WUHU216HW,2013-09-05 09:41:00,
2013-09-05 05:46:00,66.1,57.2,29.58,NW,315,4.7,7.4,73,0.00,,,0.00,WUHU216HW,2013-09-05 09:46:00,
2013-09-05 05:51:00,66.1,57.2,29.58,WNW,293,2.9,7.4,73,0.00,,,0.00,WUHU216HW,2013-09-05 09:51:00,
2013-09-05 05:56:00,65.9,57.0,29.58,WNW,293,2.5,6.3,73,0.00,,,0.00,WUHU216HW,2013-09-05 09:56:00,
2013-09-05 06:01:00,65.7,56.8,29.58,WSW,248,3.6,6.3,73,0.00,,,0.00,WUHU216HW,2013-09-05 10:01:00,
2013-09-05 06:06:00,65.7,56.8,29.59,West,270,3.1,7.4,73,0.00,,,0.00,WUHU216HW,2013-09-05 10:06:00,
2013-09-05 06:11:00,65.7,56.8,29.59,NW,315,1.8,7.4,73,0.00,,,0.00,WUHU216HW,2013-09-05 10:11:00,
2013-09-05 06:16:00,65.5,56.6,29.60,WSW,248,7.6,7.6,73,0.00,,,0.00,WUHU216HW,2013-09-05 10:16:00,
2013-09-05 06:21:00,65.3,56.4,29.60,West,270,1.8,10.5,73,0.00,,,0.00,WUHU216HW,2013-09-05 10:21:00,
2013-09-05 06:26:00,65.2,56.3,29.61,NNW,338,4.9,10.5,73,0.00,,,0.00,WUHU216HW,2013-09-05 10:26:00,
2013-09-05 06:31:00,65.2,55.9,29.60,NW,315,3.6,10.5,72,0.00,,,0.00,WUHU216HW,2013-09-05 10:31:00,
2013-09-05 06:36:00,65.2,55.5,29.61,NW,315,4.0,10.5,71,0.00,,,0.00,WUHU216HW,2013-09-05 10:36:00,
2013-09-05 06:41:00,65.0,55.8,29.61,NNW,338,1.8,7.4,72,0.00,,,0.00,WUHU216HW,2013-09-05 10:41:00,
2013-09-05 06:46:00,64.6,55.1,29.61,West,270,4.0,9.4,71,0.00,,,0.00,WUHU216HW,2013-09-05 10:46:00,
2013-09-05 06:51:00,64.4,54.5,29.62,NNE,23,6.5,9.4,70,0.00,,,0.00,WUHU216HW,2013-09-05 10:51:00,
2013-09-05 06:56:00,64.3,54.4,29.62,NW,315,5.4,9.4,70,0.00,,,0.00,WUHU216HW,2013-09-05 10:56:00,
2013-09-05 07:01:00,64.1,54.5,29.63,WNW,293,7.6,9.8,71,0.00,,,0.00,WUHU216HW,2013-09-05 11:01:00,
2013-09-05 07:06:00,63.9,54.4,29.63,West,270,6.5,11.4,71,0.00,,,0.00,WUHU216HW,2013-09-05 11:06:00,
2013-09-05 07:11:00,63.7,54.5,29.63,West,270,11.2,11.4,72,0.00,,,0.00,WUHU216HW,2013-09-05 11:11:00,
2013-09-05 07:16:00,63.7,54.5,29.64,NNW,338,2.9,11.2,72,0.00,,,0.00,WUHU216HW,2013-09-05 11:16:00,
2013-09-05 07:21:00,63.5,54.4,29.64,West,270,8.5,11.2,72,0.00,,,0.00,WUHU216HW,2013-09-05 11:21:00,
2013-09-05 07:26:00,63.4,54.5,29.64,WNW,293,4.3,8.5,73,0.00,,,0.00,WUHU216HW,2013-09-05 11:26:00,
2013-09-05 07:31:00,63.4,54.2,29.64,WSW,248,6.3,13.4,72,0.00,,,0.00,WUHU216HW,2013-09-05 11:31:00,
2013-09-05 07:36:00,63.0,54.2,29.64,North,0,7.4,13.4,73,0.00,,,0.00,WUHU216HW,2013-09-05 11:36:00,
2013-09-05 07:41:00,63.0,54.2,29.64,WNW,293,6.3,8.3,73,0.00,,,0.00,WUHU216HW,2013-09-05 11:41:00,
2013-09-05 07:46:00,63.0,53.8,29.64,WNW,293,6.0,9.8,72,0.00,,,0.00,WUHU216HW,2013-09-05 11:46:00,
2013-09-05 07:51:00,62.8,53.6,29.64,North,0,6.0,9.8,72,0.00,,,0.00,WUHU216HW,2013-09-05 11:51:00,
2013-09-05 07:56:00,62.8,53.3,29.64,WSW,248,9.8,9.8,71,0.00,,,0.00,WUHU216HW,2013-09-05 11:56:00,
2013-09-05 08:01:00,62.8,53.3,29.64,West,270,6.3,9.8,71,0.00,,,0.00,WUHU216HW,2013-09-05 12:01:00,
2013-09-05 08:06:00,62.8,53.3,29.64,WNW,293,9.8,9.8,71,0.00,,,0.00,WUHU216HW,2013-09-05 12:06:00,
2013-09-05 08:11:00,62.8,53.3,29.64,NW,315,6.3,12.3,71,0.00,,,0.00,WUHU216HW,2013-09-05 12:11:00,
2013-09-05 08:16:00,62.8,52.9,29.64,NW,315,5.4,12.3,70,0.00,,,0.00,WUHU216HW,2013-09-05 12:16:00,
2013-09-05 08:21:00,63.0,53.5,29.64,North,0,3.1,8.9,71,0.00,,,0.00,WUHU216HW,2013-09-05 12:21:00,
2013-09-05 08:26:00,63.0,53.5,29.65,NNW,338,5.8,8.9,71,0.00,,,0.00,WUHU216HW,2013-09-05 12:26:00,
2013-09-05 08:31:00,63.0,53.5,29.65,West,270,6.7,6.7,71,0.00,,,0.00,WUHU216HW,2013-09-05 12:31:00,
2013-09-05 08:36:00,63.2,54.0,29.65,North,0,5.1,6.7,72,0.00,,,0.00,WUHU216HW,2013-09-05 12:36:00,
2013-09-05 08:41:00,63.2,53.6,29.65,NNW,338,6.3,8.3,71,0.00,,,0.00,WUHU216HW,2013-09-05 12:41:00,
2013-09-05 08:46:00,63.4,53.8,29.65,NNW,338,8.3,8.5,71,0.00,,,0.00,WUHU216HW,2013-09-05 12:46:00,
2013-09-05 08:51:00,63.2,54.0,29.65,North,0,3.8,8.5,72,0.00,,,0.00,WUHU216HW,2013-09-05 12:51:00,
2013-09-05 08:56:00,62.3,52.4,29.66,NNE,23,6.3,9.8,70,0.00,,,0.00,WUHU216HW,2013-09-05 12:56:00,
2013-09-05 09:01:00,61.2,51.0,29.66,North,0,4.0,9.8,69,0.00,,,0.00,WUHU216HW,2013-09-05 13:01:00,
2013-09-05 09:06:00,60.3,49.8,29.67,NNE,23,6.0,7.4,68,0.00,,,0.00,WUHU216HW,2013-09-05 13:06:00,
2013-09-05 09:11:00,60.1,49.6,29.67,North,0,6.7,9.2,68,0.00,,,0.00,WUHU216HW,2013-09-05 13:11:00,
2013-09-05 09:16:00,59.9,49.8,29.67,NE,45,6.9,9.2,69,0.00,,,0.00,WUHU216HW,2013-09-05 13:16:00,
2013-09-05 09:21:00,60.1,49.6,29.67,North,0,5.4,7.4,68,0.00,,,0.00,WUHU216HW,2013-09-05 13:21:00,
2013-09-05 09:26:00,60.1,49.6,29.67,NNW,338,1.3,8.5,68,0.00,,,0.00,WUHU216HW,2013-09-05 13:26:00,
2013-09-05 09:31:00,60.5,50.0,29.68,North,0,1.8,8.5,68,0.00,,,0.00,WUHU216HW,2013-09-05 13:31:00,
2013-09-05 09:36:00,61.0,49.2,29.67,North,0,4.5,4.5,65,0.00,,,0.00,WUHU216HW,2013-09-05 13:36:00,
2013-09-05 09:41:00,61.6,50.9,29.67,North,0,5.1,5.6,68,0.00,,,0.00,WUHU216HW,2013-09-05 13:41:00,
2013-09-05 09:46:00,61.9,50.1,29.68,North,0,4.3,5.6,65,0.00,,,0.00,WUHU216HW,2013-09-05 13:46:00,
2013-09-05 09:51:00,61.6,49.7,29.67,NNE,23,7.6,9.8,65,0.00,,,0.00,WUHU216HW,2013-09-05 13:51:00,
2013-09-05 09:56:00,61.6,50.5,29.67,NNW,338,3.6,9.8,67,0.00,,,0.00,WUHU216HW,2013-09-05 13:56:00,
2013-09-05 10:01:00,62.1,50.2,29.68,North,0,6.7,8.1,65,0.00,,,0.00,WUHU216HW,2013-09-05 14:01:00,
2013-09-05 10:06:00,61.6,49.7,29.68,NNE,23,8.3,8.3,65,0.00,,,0.00,WUHU216HW,2013-09-05 14:06:00,
2013-09-05 10:11:00,61.6,50.1,29.68,NNW,338,4.3,8.3,66,0.00,,,0.00,WUHU216HW,2013-09-05 14:11:00,
2013-09-05 10:16:00,61.7,50.7,29.68,NNE,23,3.4,6.9,67,0.00,,,0.00,WUHU216HW,2013-09-05 14:16:00,
2013-09-05 10:21:00,61.2,49.8,29.68,North,0,9.8,9.8,66,0.00,,,0.00,WUHU216HW,2013-09-05 14:21:00,
2013-09-05 10:26:00,61.2,51.0,29.68,ENE,68,2.7,9.8,69,0.00,,,0.00,WUHU216HW,2013-09-05 14:26:00,
2013-09-05 10:31:00,61.7,51.1,29.68,North,0,5.4,6.9,68,0.00,,,0.00,WUHU216HW,2013-09-05 14:31:00,
2013-09-05 10:36:00,62.1,50.6,29.68,NNW,338,4.7,6.9,66,0.00,,,0.00,WUHU216HW,2013-09-05 14:36:00,
2013-09-05 10:41:00,62.1,51.0,29.68,NNE,23,5.4,5.4,67,0.00,,,0.00,WUHU216HW,2013-09-05 14:41:00,
2013-09-05 10:46:00,62.6,51.5,29.68,NNE,23,4.5,7.2,67,0.00,,,0.00,WUHU216HW,2013-09-05 14:46:00,
2013-09-05 10:51:00,62.5,51.0,29.68,North,0,4.9,11.0,66,0.00,,,0.00,WUHU216HW,2013-09-05 14:51:00,
2013-09-05 10:56:00,62.3,51.2,29.68,ENE,68,4.3,11.0,67,0.00,,,0.00,WUHU216HW,2013-09-05 14:56:00,
2013-09-05 11:01:00,62.5,51.0,29.68,NNE,23,6.7,6.7,66,0.00,,,0.00,WUHU216HW,2013-09-05 15:01:00,
2013-09-05 11:06:00,62.8,51.3,29.68,NE,45,8.5,8.5,66,0.00,,,0.00,WUHU216HW,2013-09-05 15:06:00,
2013-09-05 11:11:00,63.0,51.4,29.68,North,0,6.7,8.5,66,0.00,,,0.00,WUHU216HW,2013-09-05 15:11:00,
2013-09-05 11:16:00,63.4,52.2,29.68,NNE,23,2.7,8.5,67,0.00,,,0.00,WUHU216HW,2013-09-05 15:16:00,
2013-09-05 11:21:00,63.7,51.7,29.68,North,0,1.8,7.2,65,0.00,,,0.00,WUHU216HW,2013-09-05 15:21:00,
2013-09-05 11:26:00,64.1,52.0,29.68,NNW,338,3.6,7.2,65,0.00,,,0.00,WUHU216HW,2013-09-05 15:26:00,
2013-09-05 11:31:00,64.4,51.5,29.68,NE,45,3.8,7.4,63,0.00,,,0.00,WUHU216HW,2013-09-05 15:31:00,
2013-09-05 11:36:00,63.9,51.8,29.68,NNE,23,6.3,7.4,65,0.00,,,0.00,WUHU216HW,2013-09-05 15:36:00,
2013-09-05 11:41:00,63.0,51.8,29.68,NNW,338,2.7,6.7,67,0.00,,,0.00,WUHU216HW,2013-09-05 15:41:00,
2013-09-05 11:46:00,64.1,52.0,29.68,NE,45,7.6,7.6,65,0.00,,,0.00,WUHU216HW,2013-09-05 15:46:00,
2013-09-05 11:51:00,64.4,50.2,29.68,NNE,23,10.5,10.5,60,0.00,,,0.00,WUHU216HW,2013-09-05 15:51:00,
2013-09-05 11:56:00,64.6,49.4,29.68,NNW,338,7.4,10.5,58,0.00,,,0.00,WUHU216HW,2013-09-05 15:56:00,
2013-09-05 12:01:00,64.4,43.0,29.68,NNE,23,10.5,10.5,46,0.00,,,0.00,WUHU216HW,2013-09-05 16:01:00,
2013-09-05 12:06:00,65.0,41.9,29.68,North,0,6.9,10.5,43,0.00,,,0.00,WUHU216HW,2013-09-05 16:06:00,
2013-09-05 12:11:00,65.7,41.3,29.68,NNW,338,6.3,10.5,41,0.00,,,0.00,WUHU216HW,2013-09-05 16:11:00,
2013-09-05 12:16:00,65.9,42.7,29.68,NNW,338,9.4,13.6,43,0.00,,,0.00,WUHU216HW,2013-09-05 16:16:00,
2013-09-05 12:21:00,65.9,43.3,29.68,NNW,338,4.3,13.6,44,0.00,,,0.00,WUHU216HW,2013-09-05 16:21:00,
2013-09-05 12:26:00,66.2,43.6,29.68,North,0,9.8,10.1,44,0.00,,,0.00,WUHU216HW,2013-09-05 16:26:00,
2013-09-05 12:31:00,66.4,45.5,29.68,NNW,338,6.9,10.1,47,0.00,,,0.00,WUHU216HW,2013-09-05 16:31:00,
2013-09-05 12:36:00,66.6,45.1,29.68,NNW,338,4.0,6.9,46,0.00,,,0.00,WUHU216HW,2013-09-05 16:36:00,
2013-09-05 12:41:00,67.0,45.5,29.68,NNE,23,12.1,12.1,46,0.00,,,0.00,WUHU216HW,2013-09-05 16:41:00,
2013-09-05 12:46:00,66.6,43.9,29.68,NNW,338,5.8,12.1,44,0.00,,,0.00,WUHU216HW,2013-09-05 16:46:00,
2013-09-05 12:51:00,66.8,42.3,29.68,NNE,23,7.8,12.1,41,0.00,,,0.00,WUHU216HW,2013-09-05 16:51:00,
2013-09-05 12:56:00,67.1,41.3,29.68,NNW,338,6.9,11.0,39,0.00,,,0.00,WUHU216HW,2013-09-05 16:56:00,
2013-09-05 13:01:00,67.3,42.8,29.68,West,270,8.9,8.9,41,0.00,,,0.00,WUHU216HW,2013-09-05 17:01:00,
2013-09-05 13:06:00,67.7,42.5,29.68,North,0,4.3,8.9,40,0.00,,,0.00,WUHU216HW,2013-09-05 17:06:00,
2013-09-05 13:11:00,68.0,42.1,29.68,North,0,9.2,9.8,39,0.00,,,0.00,WUHU216HW,2013-09-05 17:11:00,
2013-09-05 13:16:00,67.9,41.9,29.68,NW,315,7.4,9.8,39,0.00,,,0.00,WUHU216HW,2013-09-05 17:16:00,
2013-09-05 13:21:00,67.9,41.9,29.68,North,0,10.7,10.7,39,0.00,,,0.00,WUHU216HW,2013-09-05 17:21:00,
2013-09-05 13:26:00,67.0,41.9,29.69,NW,315,5.8,13.4,40,0.00,,,0.00,WUHU216HW,2013-09-05 17:26:00,
2013-09-05 13:31:00,67.1,42.7,29.69,NW,315,4.7,13.4,41,0.00,,,0.00,WUHU216HW,2013-09-05 17:31:00,
2013-09-05 13:36:00,68.0,42.8,29.69,NNW,338,7.2,8.1,40,0.00,,,0.00,WUHU216HW,2013-09-05 17:36:00,
2013-09-05 13:41:00,68.9,44.3,29.68,NNW,338,4.0,8.1,41,0.00,,,0.00,WUHU216HW,2013-09-05 17:41:00,
2013-09-05 13:46:00,69.5,43.4,29.69,North,0,9.8,9.8,39,0.00,,,0.00,WUHU216HW,2013-09-05 17:46:00,
2013-09-05 13:51:00,69.3,42.5,29.69,NW,315,5.1,9.8,38,0.00,,,0.00,WUHU216HW,2013-09-05 17:51:00,
2013-09-05 13:56:00,69.3,42.5,29.69,NNW,338,10.5,10.5,38,0.00,,,0.00,WUHU216HW,2013-09-05 17:56:00,
2013-09-05 14:01:00,69.3,41.8,29.69,NNE,23,3.6,10.5,37,0.00,,,0.00,WUHU216HW,2013-09-05 18:01:00,
2013-09-05 14:06:00,69.7,42.1,29.69,North,0,15.0,15.0,37,0.00,,,0.00,WUHU216HW,2013-09-05 18:06:00,
2013-09-05 14:11:00,69.8,42.2,29.69,NW,315,6.0,15.0,37,0.00,,,0.00,WUHU216HW,2013-09-05 18:11:00,
2013-09-05 14:16:00,69.5,40.4,29.69,WSW,248,6.9,10.5,35,0.00,,,0.00,WUHU216HW,2013-09-05 18:16:00,
2013-09-05 14:21:00,69.7,42.9,29.69,NW,315,7.8,10.5,38,0.00,,,0.00,WUHU216HW,2013-09-05 18:21:00,
2013-09-05 14:26:00,68.6,38.9,29.70,NW,315,5.4,13.4,34,0.00,,,0.00,WUHU216HW,2013-09-05 18:26:00,
2013-09-05 14:31:00,68.2,40.8,29.70,West,270,5.8,13.4,37,0.00,,,0.00,WUHU216HW,2013-09-05 18:31:00,
2013-09-05 14:36:00,68.8,42.0,29.69,NNW,338,10.5,10.5,38,0.00,,,0.00,WUHU216HW,2013-09-05 18:36:00,
2013-09-05 14:41:00,68.2,41.5,29.70,North,0,9.8,10.5,38,0.00,,,0.00,WUHU216HW,2013-09-05 18:41:00,
2013-09-05 14:46:00,67.1,41.3,29.70,North,0,4.7,10.1,39,0.00,,,0.00,WUHU216HW,2013-09-05 18:46:00,
2013-09-05 14:51:00,66.6,40.2,29.70,NNW,338,4.7,10.1,38,0.00,,,0.00,WUHU216HW,2013-09-05 18:51:00,
2013-09-05 14:56:00,67.1,41.3,29.70,NW,315,9.4,9.4,39,0.00,,,0.00,WUHU216HW,2013-09-05 18:56:00,
2013-09-05 15:01:00,66.4,40.7,29.70,North,0,2.9,9.6,39,0.00,,,0.00,WUHU216HW,2013-09-05 19:01:00,
2013-09-05 15:06:00,66.8,41.7,29.70,NW,315,8.5,9.6,40,0.00,,,0.00,WUHU216HW,2013-09-05 19:06:00,
2013-09-05 15:11:00,68.4,43.7,29.70,NNW,338,4.9,9.4,41,0.00,,,0.00,WUHU216HW,2013-09-05 19:11:00,
2013-09-05 15:16:00,69.5,44.7,29.70,NNW,338,2.9,6.5,41,0.00,,,0.00,WUHU216HW,2013-09-05 19:16:00,
2013-09-05 15:21:00,69.5,43.4,29.70,NW,315,8.3,11.2,39,0.00,,,0.00,WUHU216HW,2013-09-05 19:21:00,
2013-09-05 15:26:00,68.8,42.8,29.70,North,0,13.4,13.4,39,0.00,,,0.00,WUHU216HW,2013-09-05 19:26:00,
2013-09-05 15:31:00,68.6,42.6,29.70,NNE,23,7.6,13.4,39,0.00,,,0.00,WUHU216HW,2013-09-05 19:31:00,
2013-09-05 15:36:00,67.9,41.2,29.70,NNW,338,6.9,10.5,38,0.00,,,0.00,WUHU216HW,2013-09-05 19:36:00,
2013-09-05 15:41:00,68.0,40.6,29.70,NNW,338,5.1,8.3,37,0.00,,,0.00,WUHU216HW,2013-09-05 19:41:00,
2013-09-05 15:46:00,67.3,41.5,29.70,NNW,338,4.0,9.6,39,0.00,,,0.00,WUHU216HW,2013-09-05 19:46:00,
2013-09-05 15:51:00,66.4,39.3,29.71,North,0,10.5,10.5,37,0.00,,,0.00,WUHU216HW,2013-09-05 19:51:00,
2013-09-05 15:56:00,67.1,39.9,29.71,NW,315,10.3,10.5,37,0.00,,,0.00,WUHU216HW,2013-09-05 19:56:00,
2013-09-05 16:01:00,67.3,39.2,29.70,North,0,5.4,10.3,36,0.00,,,0.00,WUHU216HW,2013-09-05 20:01:00,
2013-09-05 16:06:00,67.3,40.0,29.70,West,270,5.4,10.1,37,0.00,,,0.00,WUHU216HW,2013-09-05 20:06:00,
2013-09-05 16:11:00,67.3,40.0,29.71,West,270,6.7,12.8,37,0.00,,,0.00,WUHU216HW,2013-09-05 20:11:00,
2013-09-05 16:16:00,66.2,38.3,29.71,NNW,338,4.0,12.8,36,0.00,,,0.00,WUHU216HW,2013-09-05 20:16:00,
2013-09-05 16:21:00,65.5,39.2,29.71,WNW,293,4.3,8.1,38,0.00,,,0.00,WUHU216HW,2013-09-05 20:21:00,
2013-09-05 16:26:00,65.2,40.2,29.71,North,0,4.7,5.8,40,0.00,,,0.00,WUHU216HW,2013-09-05 20:26:00,
2013-09-05 16:31:00,65.7,40.8,29.71,NW,315,9.4,9.4,40,0.00,,,0.00,WUHU216HW,2013-09-05 20:31:00,
2013-09-05 16:36:00,66.8,42.3,29.71,NNW,338,4.7,9.4,41,0.00,,,0.00,WUHU216HW,2013-09-05 20:36:00,
2013-09-05 16:41:00,67.3,41.5,29.71,NW,315,5.1,6.0,39,0.00,,,0.00,WUHU216HW,2013-09-05 20:41:00,
2013-09-05 16:46:00,67.7,42.5,29.71,West,270,6.3,6.3,40,0.00,,,0.00,WUHU216HW,2013-09-05 20:46:00,
2013-09-05 16:51:00,67.7,41.8,29.71,NW,315,4.5,8.7,39,0.00,,,0.00,WUHU216HW,2013-09-05 20:51:00,
2013-09-05 16:56:00,67.7,43.1,29.71,WSW,248,4.3,8.7,41,0.00,,,0.00,WUHU216HW,2013-09-05 20:56:00,
2013-09-05 17:01:00,67.5,42.4,29.71,West,270,6.3,8.9,40,0.00,,,0.00,WUHU216HW,2013-09-05 21:01:00,
2013-09-05 17:06:00,67.1,43.8,29.71,NW,315,3.1,8.9,43,0.00,,,0.00,WUHU216HW,2013-09-05 21:06:00,
2013-09-05 17:11:00,67.1,43.2,29.72,North,0,4.9,5.4,42,0.00,,,0.00,WUHU216HW,2013-09-05 21:11:00,
2013-09-05 17:16:00,67.0,42.5,29.72,NW,315,6.0,6.0,41,0.00,,,0.00,WUHU216HW,2013-09-05 21:16:00,
2013-09-05 17:21:00,67.0,42.5,29.72,NW,315,4.0,6.5,41,0.00,,,0.00,WUHU216HW,2013-09-05 21:21:00,
2013-09-05 17:26:00,67.0,42.5,29.72,North,0,4.3,6.5,41,0.00,,,0.00,WUHU216HW,2013-09-05 21:26:00,
2013-09-05 17:31:00,67.0,41.9,29.72,NNW,338,5.4,8.1,40,0.00,,,0.00,WUHU216HW,2013-09-05 21:31:00,
2013-09-05 17:36:00,66.6,42.1,29.72,North,0,2.2,8.1,41,0.00,,,0.00,WUHU216HW,2013-09-05 21:36:00,
2013-09-05 17:41:00,66.8,42.3,29.73,NNW,338,7.8,7.8,41,0.00,,,0.00,WUHU216HW,2013-09-05 21:41:00,
2013-09-05 17:46:00,66.6,42.1,29.73,NW,315,6.0,7.8,41,0.00,,,0.00,WUHU216HW,2013-09-05 21:46:00,
2013-09-05 17:51:00,66.8,43.5,29.73,NNW,338,4.0,6.0,43,0.00,,,0.00,WUHU216HW,2013-09-05 21:51:00,
2013-09-05 17:56:00,66.6,42.8,29.73,NW,315,5.4,8.5,42,0.00,,,0.00,WUHU216HW,2013-09-05 21:56:00,
2013-09-05 18:01:00,66.6,43.3,29.73,North,0,4.7,8.5,43,0.00,,,0.00,WUHU216HW,2013-09-05 22:01:00,
2013-09-05 18:06:00,65.9,42.7,29.73,NW,315,3.1,7.8,43,0.00,,,0.00,WUHU216HW,2013-09-05 22:06:00,
2013-09-05 18:11:00,65.2,42.0,29.73,NW,315,6.3,6.3,43,0.00,,,0.00,WUHU216HW,2013-09-05 22:11:00,
2013-09-05 18:16:00,64.4,42.0,29.74,NW,315,2.2,6.3,44,0.00,,,0.00,WUHU216HW,2013-09-05 22:16:00,
2013-09-05 18:21:00,64.4,42.5,29.74,NNW,338,1.6,5.6,45,0.00,,,0.00,WUHU216HW,2013-09-05 22:21:00,
2013-09-05 18:26:00,64.4,42.5,29.74,NNW,338,4.3,5.4,45,0.00,,,0.00,WUHU216HW,2013-09-05 22:26:00,
2013-09-05 18:31:00,64.3,41.8,29.74,NNW,338,3.8,5.4,44,0.00,,,0.00,WUHU216HW,2013-09-05 22:31:00,
2013-09-05 18:36:00,64.1,41.6,29.74,NNW,338,6.9,6.9,44,0.00,,,0.00,WUHU216HW,2013-09-05 22:36:00,
2013-09-05 18:41:00,64.1,41.6,29.74,West,270,3.6,6.9,44,0.00,,,0.00,WUHU216HW,2013-09-05 22:41:00,
2013-09-05 18:46:00,63.9,41.4,29.74,NW,315,4.7,5.6,44,0.00,,,0.00,WUHU216HW,2013-09-05 22:46:00,
2013-09-05 18:51:00,63.7,41.9,29.74,NW,315,1.3,6.9,45,0.00,,,0.00,WUHU216HW,2013-09-05 22:51:00,
2013-09-05 18:56:00,63.4,41.5,29.74,West,270,1.8,6.9,45,0.00,,,0.00,WUHU216HW,2013-09-05 22:56:00,
2013-09-05 19:01:00,63.0,41.8,29.75,NNW,338,1.3,6.9,46,0.00,,,0.00,WUHU216HW,2013-09-05 23:01:00,
2013-09-05 19:06:00,62.6,41.4,29.75,WNW,293,2.9,5.4,46,0.00,,,0.00,WUHU216HW,2013-09-05 23:06:00,
2013-09-05 19:11:00,62.1,41.5,29.75,NW,315,2.5,5.4,47,0.00,,,0.00,WUHU216HW,2013-09-05 23:11:00,
2013-09-05 19:16:00,61.6,41.0,29.75,North,0,4.7,5.4,47,0.00,,,0.00,WUHU216HW,2013-09-05 23:16:00,
2013-09-05 19:21:00,61.4,41.5,29.75,WNW,293,3.1,5.4,48,0.00,,,0.00,WUHU216HW,2013-09-05 23:21:00,
2013-09-05 19:26:00,61.2,41.3,29.75,WNW,293,4.0,5.1,48,0.00,,,0.00,WUHU216HW,2013-09-05 23:26:00,
2013-09-05 19:31:00,60.8,41.0,29.76,West,270,4.7,5.1,48,0.00,,,0.00,WUHU216HW,2013-09-05 23:31:00,
2013-09-05 19:36:00,60.7,41.4,29.76,NW,315,3.4,6.3,49,0.00,,,0.00,WUHU216HW,2013-09-05 23:36:00,
2013-09-05 19:41:00,60.5,41.2,29.76,NW,315,4.7,6.3,49,0.00,,,0.00,WUHU216HW,2013-09-05 23:41:00,
2013-09-05 19:46:00,60.1,40.9,29.76,West,270,4.0,5.4,49,0.00,,,0.00,WUHU216HW,2013-09-05 23:46:00,
2013-09-05 19:51:00,60.1,40.9,29.76,NE,45,2.0,5.1,49,0.00,,,0.00,WUHU216HW,2013-09-05 23:51:00,
2013-09-05 19:56:00,59.8,41.1,29.76,NW,315,4.3,5.4,50,0.00,,,0.00,WUHU216HW,2013-09-05 23:56:00,
2013-09-05 20:01:00,59.8,41.1,29.76,WSW,248,4.0,5.4,50,0.00,,,0.00,WUHU216HW,2013-09-06 00:01:00,
2013-09-05 20:06:00,59.6,41.0,29.76,ENE,68,1.8,5.4,50,0.00,,,0.00,WUHU216HW,2013-09-06 00:06:00,
2013-09-05 20:11:00,59.4,40.9,29.77,NW,315,3.1,5.4,50,0.00,,,0.00,WUHU216HW,2013-09-06 00:11:00,
2013-09-05 20:16:00,59.2,41.1,29.77,WNW,293,2.9,4.7,51,0.00,,,0.00,WUHU216HW,2013-09-06 00:16:00,
2013-09-05 20:21:00,59.0,41.0,29.77,NNW,338,2.5,4.7,51,0.00,,,0.00,WUHU216HW,2013-09-06 00:21:00,
2013-09-05 20:26:00,58.9,41.3,29.77,NW,315,2.5,4.3,52,0.00,,,0.00,WUHU216HW,2013-09-06 00:26:00,
2013-09-05 20:31:00,58.7,41.1,29.77,NNW,338,2.2,4.3,52,0.00,,,0.00,WUHU216HW,2013-09-06 00:31:00,
2013-09-05 20:36:00,58.3,41.2,29.78,West,270,4.3,4.3,53,0.00,,,0.00,WUHU216HW,2013-09-06 00:36:00,
2013-09-05 20:41:00,58.3,41.2,29.78,WNW,293,3.1,4.7,53,0.00,,,0.00,WUHU216HW,2013-09-06 00:41:00,
2013-09-05 20:46:00,58.3,40.8,29.78,NW,315,5.8,5.8,52,0.00,,,0.00,WUHU216HW,2013-09-06 00:46:00,
2013-09-05 20:51:00,58.5,41.0,29.79,West,270,6.3,6.3,52,0.00,,,0.00,WUHU216HW,2013-09-06 00:51:00,
2013-09-05 20:56:00,58.3,40.8,29.79,NW,315,4.9,6.3,52,0.00,,,0.00,WUHU216HW,2013-09-06 00:56:00,
2013-09-05 21:01:00,58.1,40.6,29.79,NW,315,5.1,5.1,52,0.00,,,0.00,WUHU216HW,2013-09-06 01:01:00,
2013-09-05 21:06:00,58.1,40.6,29.79,North,0,2.5,6.9,52,0.00,,,0.00,WUHU216HW,2013-09-06 01:06:00,
2013-09-05 21:11:00,58.0,40.5,29.79,NNW,338,7.4,7.4,52,0.00,,,0.00,WUHU216HW,2013-09-06 01:11:00,
2013-09-05 21:16:00,58.0,41.0,29.79,NW,315,1.8,7.4,53,0.00,,,0.00,WUHU216HW,2013-09-06 01:16:00,
2013-09-05 21:21:00,57.8,40.8,29.79,NNW,338,2.7,4.7,53,0.00,,,0.00,WUHU216HW,2013-09-06 01:21:00,
2013-09-05 21:26:00,57.6,41.0,29.80,WNW,293,3.8,4.9,54,0.00,,,0.00,WUHU216HW,2013-09-06 01:26:00,
2013-09-05 21:31:00,57.2,40.8,29.80,WSW,248,4.0,5.4,54,0.00,,,0.00,WUHU216HW,2013-09-06 01:31:00,
2013-09-05 21:36:00,57.1,40.6,29.80,NW,315,2.7,5.4,54,0.00,,,0.00,WUHU216HW,2013-09-06 01:36:00,
2013-09-05 21:41:00,56.9,40.4,29.81,NW,315,2.9,6.5,54,0.00,,,0.00,WUHU216HW,2013-09-06 01:41:00,
2013-09-05 21:46:00,56.9,40.9,29.81,NW,315,2.0,6.5,55,0.00,,,0.00,WUHU216HW,2013-09-06 01:46:00,
2013-09-05 21:51:00,56.5,40.5,29.81,WNW,293,3.1,5.1,55,0.00,,,0.00,WUHU216HW,2013-09-06 01:51:00,
2013-09-05 21:56:00,56.3,40.3,29.81,NNW,338,2.5,3.4,55,0.00,,,0.00,WUHU216HW,2013-09-06 01:56:00,
2013-09-05 22:01:00,56.2,40.1,29.82,NNE,23,4.0,4.0,55,0.00,,,0.00,WUHU216HW,2013-09-06 02:01:00,
2013-09-05 22:06:00,56.2,40.6,29.82,NW,315,3.6,4.0,56,0.00,,,0.00,WUHU216HW,2013-09-06 02:06:00,
2013-09-05 22:11:00,56.0,40.4,29.82,NW,315,1.3,3.6,56,0.00,,,0.00,WUHU216HW,2013-09-06 02:11:00,
2013-09-05 22:16:00,55.8,40.7,29.82,West,270,2.2,2.7,57,0.00,,,0.00,WUHU216HW,2013-09-06 02:16:00,
2013-09-05 22:21:00,55.4,40.3,29.82,NW,315,2.5,2.5,57,0.00,,,0.00,WUHU216HW,2013-09-06 02:21:00,
2013-09-05 22:26:00,55.1,40.1,29.83,NNW,338,1.1,2.5,57,0.00,,,0.00,WUHU216HW,2013-09-06 02:26:00,
2013-09-05 22:31:00,54.9,40.3,29.83,NNW,338,0.9,2.5,58,0.00,,,0.00,WUHU216HW,2013-09-06 02:31:00,
2013-09-05 22:36:00,54.7,40.7,29.83,NNW,338,3.1,3.1,59,0.00,,,0.00,WUHU216HW,2013-09-06 02:36:00,
2013-09-05 22:41:00,54.4,40.3,29.83,NW,315,2.0,3.1,59,0.00,,,0.00,WUHU216HW,2013-09-06 02:41:00,
2013-09-05 22:46:00,54.4,40.3,29.83,NW,315,3.4,3.4,59,0.00,,,0.00,WUHU216HW,2013-09-06 02:46:00,
2013-09-05 22:51:00,54.0,40.5,29.84,NW,315,1.1,3.4,60,0.00,,,0.00,WUHU216HW,2013-09-06 02:51:00,
2013-09-05 22:56:00,53.8,40.7,29.84,NNW,338,2.0,3.6,61,0.00,,,0.00,WUHU216HW,2013-09-06 02:56:00,
2013-09-05 23:01:00,53.8,40.7,29.84,North,0,1.1,3.6,61,0.00,,,0.00,WUHU216HW,2013-09-06 03:01:00,
2013-09-05 23:06:00,53.6,40.5,29.84,NNW,338,1.6,3.4,61,0.00,,,0.00,WUHU216HW,2013-09-06 03:06:00,
2013-09-05 23:11:00,53.6,41.0,29.84,NNW,338,1.6,2.7,62,0.00,,,0.00,WUHU216HW,2013-09-06 03:11:00,
2013-09-05 23:16:00,53.5,40.8,29.84,North,0,1.3,3.4,62,0.00,,,0.00,WUHU216HW,2013-09-06 03:16:00,
2013-09-05 23:21:00,53.3,40.6,29.84,NNW,338,1.8,3.4,62,0.00,,,0.00,WUHU216HW,2013-09-06 03:21:00,
2013-09-05 23:26:00,53.1,40.8,29.84,NNW,338,1.1,2.5,63,0.00,,,0.00,WUHU216HW,2013-09-06 03:26:00,
2013-09-05 23:31:00,52.9,40.6,29.84,NNW,338,1.8,3.4,63,0.00,,,0.00,WUHU216HW,2013-09-06 03:31:00,
2013-09-05 23:36:00,52.6,40.7,29.84,North,0,1.8,3.4,64,0.00,,,0.00,WUHU216HW,2013-09-06 03:36:00,
2013-09-05 23:41:00,52.6,40.7,29.85,NNW,338,3.1,3.1,64,0.00,,,0.00,WUHU216HW,2013-09-06 03:41:00,
2013-09-05 23:46:00,52.4,40.5,29.85,North,0,0.9,3.1,64,0.00,,,0.00,WUHU216HW,2013-09-06 03:46:00,
2013-09-05 23:51:00,52.2,40.3,29.85,NNW,338,1.1,2.9,64,0.00,,,0.00,WUHU216HW,2013-09-06 03:51:00,
2013-09-05 23:56:00,52.0,41.0,29.85,North,0,2.7,2.9,66,0.00,,,0.00,WUHU216HW,2013-09-06 03:56:00,